Location: Allentsteig
(48.6833°N, 15.3167°E)
Time: 02:16:25
(UTC+00:00)

Cosmos 1689 Rocket - Pass Details

Date: 18 September 2020
Orbit: 362 x 378 km, 97.5° (Epoch: 29 October)

Event Time Altitude Azimuth Distance (km) Brightness Sun altitude
Rises 17:31:14 0° 5° (N) 2,281 6.0 -5.2°
Reaches altitude 10° 17:33:19 10° 355° (N) 1,420 5.1 -5.6°
Maximum altitude 17:36:04 33° 289° (WNW) 673 4.2 -6.0°
Drops below altitude 10° 17:38:48 10° 223° (SW) 1,402 5.4 -6.5°
Sets 17:40:51 0° 214° (SW) 2,247 6.3 -6.8°
